Terminal Aerodrome Forecast
Issued by NWS Portland, ME

Home | Current Version | Previous Version | Text Only | Print | Product List | Glossary On
Versions: 1 2 3 4 5 6 7 8 9 10 11 12 13 14 15 16 17 18 19 20 21 22 23 24 25 26 27 28 29 30 31 32 33
535
FTUS41 KGYX 241120
TAFCON
TAF
KCON 241120Z 2412/2512 04013KT 2SM -SN BR OVC015 WS015/08045KT
      TEMPO 2412/2414 5SM -FZRA BR OVC030
     FM241400 04012G25KT 2SM FZRAPL OVC008
     FM241700 24013G22KT 1 1/2SM RA BR OVC015
     FM250000 34013G19KT 3/4SM -DZ BR OVC007=

USA.gov is the U.S. government's official web portal to all federal, state and local government web resources and services.